GW0720 Weather Reports


Display with metric or nautical units.
time (UTC)temp
F
wind
direction
speed
MPH
gust
MPH
rain 1hr
in
rain 24hr
in
rain mn
in
humidity
%
barometer
mb
20260503040059 49 0 0.0 0.0 0.00 0.00 0.00 82 1014.1
20260503034603 50 0 0.0 0.0 0.00 0.00 0.00 84 1014.1
20260503033056 50 0 0.0 0.0 0.00 0.00 0.00 83 1014.2
20260503031555 50 0 0.0 0.0 0.00 0.00 0.00 81 1014.2
20260503030053 50 0 0.0 0.0 0.00 0.00 0.00 78 1014.2
20260503024553 50 0 0.0 0.0 0.00 0.00 0.00 77 1014.1
20260503023053 51 0 0.0 0.0 0.00 0.00 0.00 79 1014.1
20260503021553 51 0 0.0 0.0 0.00 0.00 0.00 75 1014.0
20260503020057 51 0 0.0 0.0 0.00 0.00 0.00 76 1013.9
20260503014610 51 0 0.0 0.0 0.00 0.00 0.00 75 1013.9
20260503013057 51 0 0.0 0.0 0.00 0.00 0.00 75 1013.7
20260503010059 51 0 0.0 0.0 0.00 0.00 0.00 76 1013.6
20260503004610 52 0 0.0 0.0 0.00 0.00 0.00 74 1013.4
20260503003107 53 0 0.0 0.0 0.00 0.00 0.00 72 1013.3
20260503001610 54 0 0.0 0.0 0.00 0.00 0.00 69 1013.1
20260502234555 57 0 0.0 0.0 0.00 0.00 0.00 57 1012.7
20260502233100 58 0 0.0 2.0 0.00 0.00 0.00 53 1012.5
20260502231603 58 0 0.0 6.0 0.00 0.00 0.00 53 1012.3
20260502230059 59 0 0.0 4.0 0.00 0.00 0.00 47 1012.2
20260502224553 59 0 0.0 2.0 0.00 0.00 0.00 51 1012.1
20260502223051 59 264 1.0 3.0 0.00 0.00 0.00 46 1012.1
20260502221551 60 231 0.0 7.0 0.00 0.00 0.00 49 1012.1
20260502220055 60 0 0.0 4.0 0.00 0.00 0.00 46 1012.4
20260502214601 60 0 0.0 6.0 0.00 0.00 0.00 47 1012.4
20260502213054 59 260 1.0 7.0 0.00 0.00 0.00 45 1012.5
20260502211556 59 0 0.0 3.0 0.00 0.00 0.00 46 1012.4
20260502210057 60 0 0.0 7.0 0.00 0.00 0.00 49 1012.3
20260502204553 61 0 0.0 3.0 0.00 0.00 0.00 48 1012.2
20260502203054 60 0 1.0 6.0 0.00 0.00 0.00 52 1012.3
20260502201610 60 40 0.0 2.0 0.00 0.00 0.00 44 1012.5
20260502200055 60 40 0.0 6.0 0.00 0.00 0.00 43 1012.7
20260502194552 61 0 1.0 7.0 0.00 0.00 0.00 48 1012.7
20260502193053 61 227 0.0 2.0 0.00 0.00 0.00 48 1012.9
20260502191551 60 0 0.0 8.0 0.00 0.00 0.00 49 1013.0
20260502190056 60 0 2.0 6.0 0.00 0.00 0.00 44 1013.2
20260502184604 60 301 0.0 8.0 0.00 0.00 0.00 48 1013.3
20260502183104 60 224 1.0 4.0 0.00 0.00 0.00 46 1013.4
20260502181605 59 313 2.0 7.0 0.00 0.00 0.00 47 1013.8
20260502163057 55 240 0.0 3.0 0.00 0.00 0.00 53 1015.0
20260502161554 55 262 0.0 3.0 0.00 0.00 0.00 56 1015.0
20260502151603 54 241 1.0 9.0 0.00 0.00 0.00 54 1015.4
20260502150107 55 274 2.0 9.0 0.00 0.00 0.00 52 1015.4
20260502123103 52 0 1.0 6.0 0.00 0.00 0.00 72 1014.4
20260502121558 52 160 1.0 7.0 0.00 0.00 0.00 74 1014.2
20260502114559 52 0 1.0 5.0 0.00 0.00 0.00 75 1014.0
20260502113052 52 282 1.0 7.0 0.00 0.00 0.00 77 1014.0
20260502111554 52 0 1.0 3.0 0.00 0.00 0.00 80 1014.0
20260502104555 50 0 0.0 4.0 0.00 0.00 0.00 87 1014.1
20260502103058 48 0 0.0 2.0 0.00 0.00 0.00 93 1013.9
20260502101616 48 0 0.0 0.0 0.00 0.00 0.00 94 1013.7
20260502100117 47 0 0.0 0.0 0.00 0.00 0.00 94 1013.5
20260502080104 48 0 0.0 0.0 0.00 0.00 0.00 91 1013.0
20260502070057 49 0 0.0 0.0 0.00 0.00 0.00 89 1012.7
20260502064556 50 0 0.0 0.0 0.00 0.00 0.00 88 1012.7
20260502063052 50 0 0.0 0.0 0.00 0.00 0.00 87 1012.8
20260502061556 50 0 0.0 0.0 0.00 0.00 0.00 86 1012.8
20260502060055 51 0 0.0 0.0 0.00 0.00 0.00 84 1012.9
20260502054602 52 0 0.0 0.0 0.00 0.00 0.00 84 1013.0
20260502053110 53 0 0.0 0.0 0.00 0.00 0.00 81 1013.0
20260502051554 54 0 0.0 2.0 0.00 0.00 0.00 80 1013.0
20260502050058 54 0 0.0 2.0 0.00 0.00 0.00 78 1013.1
20260502044552 54 0 0.0 4.0 0.00 0.00 0.00 77 1013.2
20260502043101 54 0 0.0 1.0 0.00 0.00 0.00 78 1013.3
20260502041551 55 0 1.0 4.0 0.00 0.00 0.00 76 1013.5